Lid_Strength_Index
3 4 4 4 4 4 4 4 3 2 2 2 2 2 2 2 2 2 2 3 3 3
3 4 3 3 3 3 3 2 2 2 2 2 2 2 2 2 2 2 3 3 3 2
2 3 3 3 3 3 3 3 2 2 2 2 2 2 2 3 1 1 2 2 2 2
3 3 3 3 3 3 3 2 2 2 2 3 3 2 3 2 1 1 1 1 2 2
2 3 3 3 3 3 3 2 2 2 2 2 3 3 2 3 2 2 2 1 1 2
3 3 3 3 3 3 2 2 2 2 2 2 2 2 2 2 2 2 2 1 1 1
3 3 3 3 3 3 2 2 2 2 2 2 2 2 2 2 1 1 2 1 1 2
3 3 2 2 2 2 3 2 2 2 2 2 2 1 2 2 2 2 2 1 2 1
3 3 2 3 3 3 3 2 2 2 2 2 1 8 5 2 1 1 1 2 2 2
3 3 3 3 3 3 4 4 3 3 3 3 4 8 7 4 1 1 2 1 1 1
4 3 3 4 4 4 4 5 5 4 5 4 5 9 8 5 1 1 2 1 1 1
4 4 4 4 4 5 5 6 6 6 5 4 5 9 9 4 1 2 2 2 2 1
4 4 4 4 4 5 5 5 5 6 6 7 6 11 10 4 2 4 3 3 4 6
4 3 4 4 4 5 5 5 5 5 7 7 7 8 10 8 3 3 5 4 5 6